| time (UTC) | temp F | wind direction | speed MPH | gust MPH | rain 1hr in | rain 24hr in | rain mn in | humidity % | barometer mb |
| 20260506082003 | 62 | 175 | 7.0 | 12.0 | 0.00 | 0.00 | 0.00 | 72 | 1013.9 |
| 20260506081504 | 62 | 163 | 2.0 | 11.0 | 0.00 | 0.00 | 0.00 | 72 | 1014.0 |
| 20260506081003 | 62 | 163 | 4.0 | 14.0 | 0.00 | 0.00 | 0.00 | 72 | 1014.0 |
| 20260506080503 | 62 | 178 | 5.0 | 14.0 | 0.00 | 0.00 | 0.00 | 71 | 1014.0 |
| 20260506073525 | 63 | 179 | 7.0 | 13.0 | 0.00 | 0.00 | 0.00 | 70 | 1013.9 |
| 20260506073024 | 63 | 191 | 3.0 | 13.0 | 0.00 | 0.00 | 0.00 | 70 | 1014.0 |
| 20260506072503 | 63 | 162 | 7.0 | 16.0 | 0.00 | 0.00 | 0.00 | 70 | 1013.7 |
| 20260506072023 | 63 | 179 | 6.0 | 17.0 | 0.00 | 0.00 | 0.00 | 70 | 1013.8 |
| 20260506071523 | 63 | 183 | 8.0 | 17.0 | 0.00 | 0.00 | 0.00 | 69 | 1013.9 |
| 20260506071002 | 63 | 177 | 6.0 | 14.0 | 0.00 | 0.00 | 0.00 | 69 | 1013.7 |
| 20260506070502 | 64 | 209 | 5.0 | 14.0 | 0.00 | 0.00 | 0.00 | 69 | 1013.7 |
| 20260506062502 | 64 | 163 | 6.0 | 18.0 | 0.00 | 0.00 | 0.00 | 68 | 1013.7 |
| 20260506062003 | 64 | 171 | 8.0 | 18.0 | 0.00 | 0.00 | 0.00 | 68 | 1013.8 |
| 20260506061524 | 64 | 175 | 7.0 | 12.0 | 0.00 | 0.00 | 0.00 | 67 | 1014.1 |
| 20260506061002 | 64 | 162 | 5.0 | 21.0 | 0.00 | 0.00 | 0.00 | 67 | 1014.3 |
| 20260506060502 | 65 | 167 | 7.0 | 21.0 | 0.00 | 0.00 | 0.00 | 67 | 1014.4 |
| 20260506051024 | 66 | 170 | 8.0 | 21.0 | 0.00 | 0.00 | 0.00 | 61 | 1014.1 |
| 20260506050502 | 66 | 165 | 7.0 | 20.0 | 0.00 | 0.00 | 0.00 | 61 | 1014.2 |
| 20260506045002 | 66 | 168 | 9.0 | 17.0 | 0.00 | 0.00 | 0.00 | 61 | 1014.3 |
| 20260506044502 | 66 | 163 | 8.0 | 14.0 | 0.00 | 0.00 | 0.00 | 61 | 1014.3 |
| 20260506044003 | 66 | 165 | 9.0 | 16.0 | 0.00 | 0.00 | 0.00 | 61 | 1014.2 |
| 20260506043502 | 66 | 169 | 8.0 | 16.0 | 0.00 | 0.00 | 0.00 | 61 | 1014.3 |
| 20260506043002 | 67 | 167 | 5.0 | 20.0 | 0.00 | 0.00 | 0.00 | 60 | 1014.3 |
| 20260506042502 | 67 | 166 | 7.0 | 20.0 | 0.00 | 0.00 | 0.00 | 60 | 1014.2 |
| 20260506042002 | 67 | 175 | 9.0 | 17.0 | 0.00 | 0.00 | 0.00 | 59 | 1014.2 |
| 20260506041524 | 67 | 171 | 7.0 | 17.0 | 0.00 | 0.00 | 0.00 | 59 | 1014.1 |
| 20260506041024 | 67 | 166 | 6.0 | 17.0 | 0.00 | 0.00 | 0.00 | 59 | 1014.1 |
| 20260506040503 | 67 | 167 | 9.0 | 17.0 | 0.00 | 0.00 | 0.00 | 59 | 1014.1 |
| 20260506040002 | 67 | 171 | 6.0 | 22.0 | 0.00 | 0.00 | 0.00 | 58 | 1013.9 |
| 20260506035523 | 68 | 170 | 9.0 | 27.0 | 0.00 | 0.00 | 0.00 | 58 | 1014.0 |
| 20260506035024 | 67 | 166 | 11.0 | 27.0 | 0.00 | 0.00 | 0.00 | 58 | 1014.1 |
| 20260506034502 | 67 | 168 | 9.0 | 22.0 | 0.00 | 0.00 | 0.00 | 58 | 1014.0 |
| 20260506034023 | 67 | 175 | 8.0 | 22.0 | 0.00 | 0.00 | 0.00 | 57 | 1014.1 |
| 20260506033503 | 67 | 163 | 8.0 | 14.0 | 0.00 | 0.00 | 0.00 | 57 | 1014.1 |
| 20260506033002 | 67 | 160 | 8.0 | 14.0 | 0.00 | 0.00 | 0.00 | 56 | 1014.0 |
| 20260506032502 | 67 | 159 | 8.0 | 14.0 | 0.00 | 0.00 | 0.00 | 56 | 1014.0 |
| 20260506032023 | 67 | 159 | 7.0 | 14.0 | 0.00 | 0.00 | 0.00 | 55 | 1014.0 |
| 20260506031503 | 67 | 163 | 9.0 | 14.0 | 0.00 | 0.00 | 0.00 | 53 | 1014.0 |
| 20260506031003 | 67 | 160 | 6.0 | 12.0 | 0.00 | 0.00 | 0.00 | 53 | 1013.8 |
| 20260506030524 | 66 | 169 | 4.0 | 11.0 | 0.00 | 0.00 | 0.00 | 53 | 1013.8 |
| 20260506030003 | 66 | 171 | 3.0 | 9.0 | 0.00 | 0.00 | 0.00 | 55 | 1013.7 |
| 20260506025503 | 66 | 162 | 3.0 | 6.0 | 0.00 | 0.00 | 0.00 | 55 | 1013.8 |
| 20260506025003 | 65 | 173 | 2.0 | 5.0 | 0.00 | 0.00 | 0.00 | 56 | 1013.8 |
| 20260506024502 | 65 | 148 | 2.0 | 5.0 | 0.00 | 0.00 | 0.00 | 57 | 1013.9 |
| 20260506024024 | 65 | 146 | 2.0 | 5.0 | 0.00 | 0.00 | 0.00 | 58 | 1013.8 |
| 20260506023502 | 64 | 146 | 1.0 | 5.0 | 0.00 | 0.00 | 0.00 | 57 | 1013.9 |
| 20260506023003 | 65 | 156 | 3.0 | 5.0 | 0.00 | 0.00 | 0.00 | 56 | 1014.0 |
| 20260506022523 | 65 | 158 | 2.0 | 4.0 | 0.00 | 0.00 | 0.00 | 56 | 1014.0 |
| 20260506022002 | 65 | 158 | 0.0 | 2.0 | 0.00 | 0.00 | 0.00 | 55 | 1014.0 |
| 20260506021503 | 65 | 158 | 1.0 | 2.0 | 0.00 | 0.00 | 0.00 | 55 | 1014.0 |
| 20260506021002 | 65 | 158 | 0.0 | 3.0 | 0.00 | 0.00 | 0.00 | 55 | 1013.8 |
| 20260506020523 | 65 | 158 | 1.0 | 3.0 | 0.00 | 0.00 | 0.00 | 55 | 1013.9 |
| 20260506020002 | 65 | 167 | 1.0 | 3.0 | 0.00 | 0.00 | 0.00 | 55 | 1014.0 |
| 20260506015503 | 66 | 167 | 1.0 | 3.0 | 0.00 | 0.00 | 0.00 | 53 | 1014.0 |
| 20260506015003 | 66 | 167 | 1.0 | 2.0 | 0.00 | 0.00 | 0.00 | 52 | 1014.0 |
| 20260506014502 | 66 | 0 | 0.0 | 4.0 | 0.00 | 0.00 | 0.00 | 52 | 1014.0 |
| 20260506014002 | 66 | 167 | 1.0 | 4.0 | 0.00 | 0.00 | 0.00 | 52 | 1014.0 |
| 20260506013503 | 66 | 146 | 1.0 | 3.0 | 0.00 | 0.00 | 0.00 | 51 | 1013.8 |
| 20260506013002 | 67 | 146 | 2.0 | 6.0 | 0.00 | 0.00 | 0.00 | 51 | 1013.7 |
| 20260506012503 | 67 | 148 | 2.0 | 6.0 | 0.00 | 0.00 | 0.00 | 50 | 1013.6 |
| 20260506012023 | 67 | 159 | 4.0 | 6.0 | 0.00 | 0.00 | 0.00 | 51 | 1013.6 |
| 20260506011523 | 67 | 156 | 2.0 | 3.0 | 0.00 | 0.00 | 0.00 | 51 | 1013.6 |
| 20260506011002 | 67 | 156 | 2.0 | 3.0 | 0.00 | 0.00 | 0.00 | 50 | 1013.6 |
| 20260506010502 | 67 | 156 | 1.0 | 2.0 | 0.00 | 0.00 | 0.00 | 49 | 1013.6 |
| 20260506010003 | 68 | 156 | 0.0 | 2.0 | 0.00 | 0.00 | 0.00 | 48 | 1013.6 |
| 20260506005503 | 68 | 156 | 0.0 | 2.0 | 0.00 | 0.00 | 0.00 | 47 | 1013.6 |
| 20260506005002 | 69 | 156 | 0.0 | 3.0 | 0.00 | 0.00 | 0.00 | 47 | 1013.5 |
| 20260506004504 | 69 | 156 | 0.0 | 4.0 | 0.00 | 0.00 | 0.00 | 45 | 1013.4 |
| 20260506004003 | 70 | 157 | 1.0 | 4.0 | 0.00 | 0.00 | 0.00 | 45 | 1013.3 |
| 20260506003502 | 71 | 155 | 0.0 | 4.0 | 0.00 | 0.00 | 0.00 | 44 | 1013.3 |
| 20260506003002 | 72 | 149 | 2.0 | 6.0 | 0.00 | 0.00 | 0.00 | 42 | 1013.2 |
| 20260506002502 | 73 | 161 | 2.0 | 9.0 | 0.00 | 0.00 | 0.00 | 40 | 1013.2 |
| 20260506002003 | 73 | 168 | 3.0 | 9.0 | 0.00 | 0.00 | 0.00 | 39 | 1013.3 |
| 20260506001503 | 74 | 153 | 2.0 | 9.0 | 0.00 | 0.00 | 0.00 | 39 | 1013.2 |
| 20260506001003 | 74 | 146 | 4.0 | 10.0 | 0.00 | 0.00 | 0.00 | 38 | 1013.1 |
| 20260506000502 | 74 | 160 | 4.0 | 10.0 | 0.00 | 0.00 | 0.00 | 38 | 1013.1 |
| 20260506000003 | 75 | 161 | 3.0 | 9.0 | 0.00 | 0.00 | 0.00 | 38 | 1013.1 |
| 20260505235502 | 75 | 169 | 5.0 | 10.0 | 0.00 | 0.00 | 0.00 | 38 | 1013.0 |
| 20260505235002 | 75 | 173 | 4.0 | 11.0 | 0.00 | 0.00 | 0.00 | 37 | 1013.1 |
| 20260505234504 | 75 | 204 | 3.0 | 12.0 | 0.00 | 0.00 | 0.00 | 37 | 1012.9 |
| 20260505234002 | 76 | 177 | 5.0 | 12.0 | 0.00 | 0.00 | 0.00 | 36 | 1012.8 |
| 20260505233504 | 76 | 181 | 6.0 | 15.0 | 0.00 | 0.00 | 0.00 | 36 | 1013.0 |
| 20260505233003 | 76 | 171 | 6.0 | 15.0 | 0.00 | 0.00 | 0.00 | 36 | 1013.0 |
| 20260505232503 | 76 | 164 | 7.0 | 12.0 | 0.00 | 0.00 | 0.00 | 36 | 1012.8 |
| 20260505232003 | 76 | 168 | 6.0 | 24.0 | 0.00 | 0.00 | 0.00 | 36 | 1012.9 |
| 20260505231504 | 77 | 181 | 5.0 | 24.0 | 0.00 | 0.00 | 0.00 | 35 | 1013.0 |
| 20260505231002 | 77 | 176 | 5.0 | 15.0 | 0.00 | 0.00 | 0.00 | 36 | 1013.0 |
| 20260505230502 | 77 | 176 | 8.0 | 18.0 | 0.00 | 0.00 | 0.00 | 35 | 1013.0 |
| 20260505230004 | 77 | 163 | 10.0 | 22.0 | 0.00 | 0.00 | 0.00 | 35 | 1013.0 |
| 20260505225524 | 77 | 168 | 7.0 | 22.0 | 0.00 | 0.00 | 0.00 | 36 | 1012.9 |
| 20260505225003 | 77 | 166 | 7.0 | 14.0 | 0.00 | 0.00 | 0.00 | 35 | 1012.9 |
| 20260505224503 | 78 | 167 | 9.0 | 17.0 | 0.00 | 0.00 | 0.00 | 36 | 1012.9 |
| 20260505224004 | 78 | 162 | 9.0 | 20.0 | 0.00 | 0.00 | 0.00 | 36 | 1013.0 |
| 20260505223502 | 78 | 165 | 6.0 | 20.0 | 0.00 | 0.00 | 0.00 | 36 | 1013.1 |
| 20260505223002 | 77 | 161 | 5.0 | 18.0 | 0.00 | 0.00 | 0.00 | 36 | 1012.9 |
| 20260505222502 | 78 | 172 | 8.0 | 18.0 | 0.00 | 0.00 | 0.00 | 35 | 1012.9 |
| 20260505222003 | 78 | 188 | 6.0 | 18.0 | 0.00 | 0.00 | 0.00 | 35 | 1013.1 |
| 20260505221523 | 78 | 161 | 6.0 | 26.0 | 0.00 | 0.00 | 0.00 | 35 | 1013.1 |
| 20260505221003 | 78 | 170 | 13.0 | 26.0 | 0.00 | 0.00 | 0.00 | 34 | 1013.1 |
| 20260505220502 | 78 | 190 | 4.0 | 21.0 | 0.00 | 0.00 | 0.00 | 35 | 1013.1 |
| 20260505220003 | 78 | 191 | 6.0 | 21.0 | 0.00 | 0.00 | 0.00 | 35 | 1013.2 |
| 20260505215503 | 78 | 175 | 7.0 | 22.0 | 0.00 | 0.00 | 0.00 | 35 | 1013.2 |
| 20260505215004 | 78 | 163 | 10.0 | 22.0 | 0.00 | 0.00 | 0.00 | 35 | 1013.3 |
| 20260505214502 | 77 | 204 | 6.0 | 22.0 | 0.00 | 0.00 | 0.00 | 36 | 1013.3 |
| 20260505214003 | 78 | 201 | 7.0 | 22.0 | 0.00 | 0.00 | 0.00 | 35 | 1013.3 |
| 20260505213503 | 78 | 199 | 8.0 | 17.0 | 0.00 | 0.00 | 0.00 | 35 | 1013.5 |
| 20260505213003 | 79 | 223 | 7.0 | 16.0 | 0.00 | 0.00 | 0.00 | 34 | 1013.6 |
| 20260505212503 | 80 | 184 | 6.0 | 19.0 | 0.00 | 0.00 | 0.00 | 35 | 1013.4 |
| 20260505212004 | 80 | 169 | 9.0 | 19.0 | 0.00 | 0.00 | 0.00 | 35 | 1013.4 |
| 20260505211504 | 79 | 189 | 3.0 | 18.0 | 0.00 | 0.00 | 0.00 | 34 | 1013.5 |
| 20260505211002 | 78 | 203 | 6.0 | 20.0 | 0.00 | 0.00 | 0.00 | 34 | 1013.4 |
| 20260505210503 | 79 | 196 | 7.0 | 23.0 | 0.00 | 0.00 | 0.00 | 34 | 1013.5 |
| 20260505210003 | 79 | 171 | 12.0 | 23.0 | 0.00 | 0.00 | 0.00 | 33 | 1013.5 |
| 20260505205502 | 80 | 171 | 9.0 | 22.0 | 0.00 | 0.00 | 0.00 | 33 | 1013.4 |
| 20260505205002 | 80 | 172 | 9.0 | 22.0 | 0.00 | 0.00 | 0.00 | 32 | 1013.4 |
| 20260505204524 | 80 | 166 | 11.0 | 19.0 | 0.00 | 0.00 | 0.00 | 33 | 1013.5 |
| 20260505204004 | 79 | 184 | 5.0 | 15.0 | 0.00 | 0.00 | 0.00 | 36 | 1013.7 |
| 20260505203524 | 79 | 168 | 6.0 | 15.0 | 0.00 | 0.00 | 0.00 | 34 | 1013.8 |
| 20260505203003 | 79 | 200 | 4.0 | 16.0 | 0.00 | 0.00 | 0.00 | 35 | 1013.8 |
| 20260505202503 | 78 | 185 | 8.0 | 16.0 | 0.00 | 0.00 | 0.00 | 34 | 1013.8 |
| 20260505202024 | 78 | 163 | 9.0 | 16.0 | 0.00 | 0.00 | 0.00 | 34 | 1013.8 |
| 20260505201502 | 78 | 212 | 6.0 | 16.0 | 0.00 | 0.00 | 0.00 | 33 | 1014.0 |
| 20260505201023 | 79 | 186 | 8.0 | 17.0 | 0.00 | 0.00 | 0.00 | 33 | 1014.0 |
| 20260505200504 | 79 | 217 | 5.0 | 17.0 | 0.00 | 0.00 | 0.00 | 32 | 1014.0 |
| 20260505200004 | 80 | 174 | 8.0 | 21.0 | 0.00 | 0.00 | 0.00 | 32 | 1014.0 |
| 20260505195524 | 80 | 226 | 7.0 | 21.0 | 0.00 | 0.00 | 0.00 | 33 | 1014.0 |
| 20260505195024 | 80 | 221 | 9.0 | 18.0 | 0.00 | 0.00 | 0.00 | 33 | 1014.0 |
| 20260505194502 | 80 | 227 | 8.0 | 20.0 | 0.00 | 0.00 | 0.00 | 33 | 1014.2 |
| 20260505194003 | 81 | 185 | 5.0 | 20.0 | 0.00 | 0.00 | 0.00 | 34 | 1014.2 |
| 20260505193503 | 79 | 177 | 10.0 | 17.0 | 0.00 | 0.00 | 0.00 | 33 | 1014.4 |
| 20260505193023 | 79 | 161 | 5.0 | 18.0 | 0.00 | 0.00 | 0.00 | 38 | 1014.4 |
| 20260505192503 | 80 | 170 | 9.0 | 25.0 | 0.00 | 0.00 | 0.00 | 33 | 1014.5 |
| 20260505192002 | 80 | 169 | 11.0 | 25.0 | 0.00 | 0.00 | 0.00 | 33 | 1014.8 |
| 20260505191504 | 80 | 182 | 6.0 | 21.0 | 0.00 | 0.00 | 0.00 | 34 | 1014.8 |
| 20260505191003 | 79 | 161 | 5.0 | 21.0 | 0.00 | 0.00 | 0.00 | 35 | 1014.9 |
| 20260505190502 | 79 | 210 | 6.0 | 19.0 | 0.00 | 0.00 | 0.00 | 35 | 1015.1 |
| 20260505190004 | 80 | 170 | 6.0 | 19.0 | 0.00 | 0.00 | 0.00 | 35 | 1015.0 |
| 20260505185504 | 79 | 218 | 8.0 | 22.0 | 0.00 | 0.00 | 0.00 | 33 | 1015.1 |
| 20260505185004 | 80 | 163 | 12.0 | 22.0 | 0.00 | 0.00 | 0.00 | 35 | 1015.1 |
| 20260505184524 | 80 | 168 | 12.0 | 22.0 | 0.00 | 0.00 | 0.00 | 34 | 1015.2 |
| 20260505184003 | 79 | 207 | 9.0 | 22.0 | 0.00 | 0.00 | 0.00 | 33 | 1015.4 |
| 20260505183504 | 80 | 175 | 8.0 | 20.0 | 0.00 | 0.00 | 0.00 | 34 | 1015.4 |
| 20260505183003 | 78 | 195 | 3.0 | 20.0 | 0.00 | 0.00 | 0.00 | 35 | 1015.6 |
| 20260505182524 | 79 | 166 | 9.0 | 18.0 | 0.00 | 0.00 | 0.00 | 36 | 1015.6 |
| 20260505182004 | 80 | 166 | 10.0 | 22.0 | 0.00 | 0.00 | 0.00 | 34 | 1015.5 |
| 20260505181524 | 80 | 161 | 9.0 | 22.0 | 0.00 | 0.00 | 0.00 | 36 | 1015.8 |
| 20260505181024 | 78 | 190 | 9.0 | 17.0 | 0.00 | 0.00 | 0.00 | 35 | 1015.9 |
| 20260505180503 | 80 | 168 | 8.0 | 19.0 | 0.00 | 0.00 | 0.00 | 35 | 1015.7 |
| 20260505180023 | 79 | 169 | 9.0 | 19.0 | 0.00 | 0.00 | 0.00 | 37 | 1015.9 |
| 20260505175503 | 79 | 215 | 5.0 | 18.0 | 0.00 | 0.00 | 0.00 | 36 | 1016.0 |
| 20260505175003 | 78 | 185 | 10.0 | 25.0 | 0.00 | 0.00 | 0.00 | 35 | 1016.1 |
| 20260505174504 | 78 | 218 | 8.0 | 25.0 | 0.00 | 0.00 | 0.00 | 34 | 1016.0 |
| 20260505174003 | 78 | 183 | 7.0 | 24.0 | 0.00 | 0.00 | 0.00 | 35 | 1015.9 |
| 20260505173504 | 79 | 210 | 8.0 | 17.0 | 0.00 | 0.00 | 0.00 | 36 | 1016.0 |
| 20260505173004 | 78 | 168 | 4.0 | 20.0 | 0.00 | 0.00 | 0.00 | 38 | 1015.8 |
| 20260505172502 | 76 | 164 | 12.0 | 20.0 | 0.00 | 0.00 | 0.00 | 37 | 1016.0 |
| 20260505172004 | 75 | 211 | 6.0 | 17.0 | 0.00 | 0.00 | 0.00 | 37 | 1016.0 |
| 20260505171503 | 77 | 214 | 7.0 | 14.0 | 0.00 | 0.00 | 0.00 | 35 | 1016.0 |
| 20260505171004 | 77 | 187 | 5.0 | 17.0 | 0.00 | 0.00 | 0.00 | 36 | 1016.0 |
| 20260505170503 | 77 | 176 | 7.0 | 17.0 | 0.00 | 0.00 | 0.00 | 34 | 1016.1 |
| 20260505170004 | 77 | 215 | 7.0 | 17.0 | 0.00 | 0.00 | 0.00 | 36 | 1016.1 |
| 20260505165503 | 76 | 235 | 3.0 | 20.0 | 0.00 | 0.00 | 0.00 | 38 | 1016.0 |
| 20260505165003 | 76 | 201 | 4.0 | 21.0 | 0.00 | 0.00 | 0.00 | 39 | 1016.0 |
| 20260505164503 | 76 | 230 | 9.0 | 21.0 | 0.00 | 0.00 | 0.00 | 37 | 1016.0 |
| 20260505164024 | 76 | 230 | 7.0 | 17.0 | 0.00 | 0.00 | 0.00 | 38 | 1016.1 |
| 20260505163504 | 76 | 165 | 9.0 | 16.0 | 0.00 | 0.00 | 0.00 | 37 | 1016.2 |
| 20260505163025 | 75 | 221 | 7.0 | 17.0 | 0.00 | 0.00 | 0.00 | 36 | 1016.4 |
| 20260505162504 | 76 | 210 | 8.0 | 17.0 | 0.00 | 0.00 | 0.00 | 38 | 1016.3 |
| 20260505162003 | 76 | 170 | 6.0 | 12.0 | 0.00 | 0.00 | 0.00 | 40 | 1016.4 |
| 20260505161503 | 75 | 226 | 6.0 | 16.0 | 0.00 | 0.00 | 0.00 | 43 | 1016.5 |
| 20260505161003 | 74 | 195 | 9.0 | 16.0 | 0.00 | 0.00 | 0.00 | 43 | 1016.6 |
| 20260505160525 | 74 | 214 | 4.0 | 20.0 | 0.00 | 0.00 | 0.00 | 43 | 1016.8 |
| 20260505153003 | 74 | 167 | 9.0 | 13.0 | 0.00 | 0.00 | 0.00 | 48 | 1016.8 |
| 20260505152504 | 73 | 163 | 7.0 | 13.0 | 0.00 | 0.00 | 0.00 | 50 | 1017.0 |
| 20260505152004 | 73 | 175 | 7.0 | 14.0 | 0.00 | 0.00 | 0.00 | 50 | 1016.9 |
| 20260505151503 | 72 | 229 | 4.0 | 14.0 | 0.00 | 0.00 | 0.00 | 50 | 1017.0 |
| 20260505151003 | 72 | 219 | 6.0 | 17.0 | 0.00 | 0.00 | 0.00 | 51 | 1017.0 |
| 20260505150524 | 72 | 208 | 5.0 | 17.0 | 0.00 | 0.00 | 0.00 | 48 | 1017.0 |
| 20260505140503 | 68 | 223 | 8.0 | 16.0 | 0.00 | 0.00 | 0.00 | 60 | 1016.8 |
| 20260505125003 | 62 | 229 | 3.0 | 12.0 | 0.00 | 0.00 | 0.00 | 69 | 1016.7 |
| 20260505124504 | 62 | 207 | 4.0 | 12.0 | 0.00 | 0.00 | 0.00 | 69 | 1016.7 |
| 20260505124003 | 61 | 228 | 3.0 | 10.0 | 0.00 | 0.00 | 0.00 | 70 | 1016.7 |
| 20260505123504 | 61 | 183 | 3.0 | 10.0 | 0.00 | 0.00 | 0.00 | 70 | 1016.5 |
| 20260505123004 | 60 | 180 | 3.0 | 10.0 | 0.00 | 0.00 | 0.00 | 70 | 1016.6 |
| 20260505122504 | 60 | 206 | 2.0 | 7.0 | 0.00 | 0.00 | 0.00 | 71 | 1016.6 |
| 20260505122004 | 59 | 193 | 2.0 | 6.0 | 0.00 | 0.00 | 0.00 | 72 | 1016.6 |
| 20260505121524 | 58 | 223 | 2.0 | 7.0 | 0.00 | 0.00 | 0.00 | 74 | 1016.6 |
| 20260505121004 | 58 | 178 | 3.0 | 7.0 | 0.00 | 0.00 | 0.00 | 74 | 1016.7 |
| 20260505120524 | 57 | 177 | 2.0 | 7.0 | 0.00 | 0.00 | 0.00 | 75 | 1016.6 |
| 20260505120004 | 57 | 164 | 2.0 | 6.0 | 0.00 | 0.00 | 0.00 | 76 | 1016.5 |
| 20260505115524 | 56 | 156 | 3.0 | 6.0 | 0.00 | 0.00 | 0.00 | 76 | 1016.5 |
| 20260505115003 | 56 | 168 | 1.0 | 6.0 | 0.00 | 0.00 | 0.00 | 76 | 1016.5 |
| 20260505114504 | 56 | 174 | 3.0 | 7.0 | 0.00 | 0.00 | 0.00 | 77 | 1016.3 |
| 20260505114003 | 55 | 171 | 4.0 | 7.0 | 0.00 | 0.00 | 0.00 | 77 | 1016.4 |
| 20260505113503 | 55 | 174 | 3.0 | 6.0 | 0.00 | 0.00 | 0.00 | 78 | 1016.3 |
| 20260505113004 | 54 | 159 | 2.0 | 5.0 | 0.00 | 0.00 | 0.00 | 79 | 1016.3 |
| 20260505112503 | 54 | 159 | 2.0 | 3.0 | 0.00 | 0.00 | 0.00 | 81 | 1016.3 |
| 20260505112003 | 53 | 159 | 1.0 | 3.0 | 0.00 | 0.00 | 0.00 | 82 | 1016.3 |
| 20260505111503 | 52 | 223 | 2.0 | 2.0 | 0.00 | 0.00 | 0.00 | 82 | 1016.1 |
| 20260505111004 | 52 | 223 | 0.0 | 2.0 | 0.00 | 0.00 | 0.00 | 83 | 1016.2 |
| 20260505110503 | 52 | 223 | 1.0 | 2.0 | 0.00 | 0.00 | 0.00 | 83 | 1016.1 |
| 20260505102004 | 53 | 223 | 0.0 | 3.0 | 0.00 | 0.00 | 0.00 | 79 | 1016.0 |
| 20260505101525 | 53 | 223 | 1.0 | 3.0 | 0.00 | 0.00 | 0.00 | 78 | 1016.0 |
| 20260505101003 | 54 | 226 | 1.0 | 3.0 | 0.00 | 0.00 | 0.00 | 78 | 1016.0 |
| 20260505100504 | 54 | 255 | 1.0 | 3.0 | 0.00 | 0.00 | 0.00 | 77 | 1015.9 |
| 20260505100004 | 54 | 270 | 1.0 | 4.0 | 0.00 | 0.00 | 0.00 | 77 | 1015.8 |
| 20260505095503 | 54 | 275 | 0.0 | 5.0 | 0.00 | 0.00 | 0.00 | 76 | 1015.8 |
| 20260505095003 | 54 | 220 | 2.0 | 5.0 | 0.00 | 0.00 | 0.00 | 76 | 1015.8 |
| 20260505094504 | 54 | 234 | 1.0 | 5.0 | 0.00 | 0.00 | 0.00 | 76 | 1015.7 |
| 20260505094025 | 54 | 234 | 1.0 | 6.0 | 0.00 | 0.00 | 0.00 | 76 | 1015.7 |
| 20260505093504 | 55 | 223 | 1.0 | 6.0 | 0.00 | 0.00 | 0.00 | 75 | 1015.6 |
| 20260505093004 | 55 | 200 | 1.0 | 5.0 | 0.00 | 0.00 | 0.00 | 74 | 1015.5 |
| 20260505092524 | 55 | 195 | 0.0 | 5.0 | 0.00 | 0.00 | 0.00 | 74 | 1015.6 |
| 20260505092003 | 56 | 160 | 0.0 | 5.0 | 0.00 | 0.00 | 0.00 | 72 | 1015.5 |
| 20260505091503 | 56 | 219 | 0.0 | 7.0 | 0.00 | 0.00 | 0.00 | 72 | 1015.4 |
| 20260505091003 | 56 | 232 | 2.0 | 7.0 | 0.00 | 0.00 | 0.00 | 71 | 1015.3 |
| 20260505090525 | 56 | 222 | 2.0 | 7.0 | 0.00 | 0.00 | 0.00 | 71 | 1015.3 |
| 20260505090004 | 57 | 225 | 2.0 | 7.0 | 0.00 | 0.00 | 0.00 | 70 | 1015.3 |
| 20260505085504 | 57 | 212 | 2.0 | 9.0 | 0.00 | 0.00 | 0.00 | 70 | 1015.2 |
| 20260505085004 | 57 | 236 | 3.0 | 9.0 | 0.00 | 0.00 | 0.00 | 70 | 1015.2 |
| 20260505084503 | 57 | 218 | 2.0 | 7.0 | 0.00 | 0.00 | 0.00 | 70 | 1015.1 |
| 20260505084004 | 57 | 216 | 1.0 | 7.0 | 0.00 | 0.00 | 0.00 | 69 | 1015.1 |
| 20260505083503 | 57 | 234 | 2.0 | 7.0 | 0.00 | 0.00 | 0.00 | 69 | 1015.0 |
| 20260505083003 | 57 | 228 | 1.0 | 7.0 | 0.00 | 0.00 | 0.00 | 68 | 1015.0 |
| 20260505082503 | 58 | 171 | 3.0 | 9.0 | 0.00 | 0.00 | 0.00 | 68 | 1014.9 |